Location: Goll?ig?dem
(16.6773°N, 80.7332°E)
Time: 20:59:15
(UTC+00:00)

Cosmos 967 Rocket - Pass Details

Date: 19 May 2025
Orbit: 952 x 984 km, 65.8° (Epoch: 11 June)

Event Time Altitude Azimuth Distance (km) Brightness Sun altitude
Rises 23:07:45 0° 335° (NNW) 3,658 7.5 -13.4°
Reaches altitude 10° 23:10:18 10° 335° (NNW) 2,714 6.8 -12.8°
Maximum altitude 23:16:39 79° 249° (WSW) 996 4.5 -11.5°
Drops below altitude 10° 23:23:03 10° 163° (SSE) 2,727 6.8 -10.1°
Sets 23:25:37 0° 162° (SSE) 3,675 7.5 -9.5°
